Weather History for V.C. Bird, Antigua

Change the Weather History Date:

Tuesday, March 25, 2014

  Actual Average Record
Temperature  
Mean Temperature 76 °F -  
Max Temperature 82 °F 83 °F 86 °F (2005)
Min Temperature 71 °F 74 °F 71 °F (2008)
Cooling Degree Days 12    
Growing Degree Days 26 (Base 50)    
Moisture  
Dew Point 67 °F    
Average Humidity 70    
Maximum Humidity 83    
Minimum Humidity 51    
Precipitation  
Precipitation 0.01 in - - ()
Sea Level Pressure  
Sea Level Pressure 30.02 in    
Wind  
Wind Speed 4 mph ()    
Max Wind Speed 10 mph    
Max Gust Speed -    
Visibility 8.9 miles    
Events      
Averages and records for this station are not official NWS values.
T = Trace of Precipitation, MM = Missing Value Source: Averaged Metar Reports

Daily Weather History Graph

Daily Weather History Graph

Search for Another Location

Airport:

Trip Planner

Search our weather history database for the weather conditions in past years. The results will help you decide how hot, cold, wet, or windy it might be!

Date:

Astronomy

Mar. 25, 2014 Rise Set
Actual Time 6:07 AM AST 6:19 PM AST
Civil Twilight 5:45 AM AST 6:40 PM AST
Nautical Twilight 5:20 AM AST 7:05 PM AST
Astronomical Twilight 4:55 AM AST 7:31 PM AST
Moon 1:41 AM AST (3/25) 1:26 PM AST (3/25)
Length of Visible Light 12h 54m
Length of Day
12h 11m
Waning Crescent, 32% of the Moon is Illuminated
Mar 25
Waning Crescent
Mar 30
New
Apr 7
First Quarter
Apr 15
Full
Apr 22
Last Quarter

Hourly Weather History & Observations

Time (AST) Temp. Heat Index Dew Point Humidity Pressure Visibility Wind Dir Wind Speed Gust Speed Precip Events Conditions
12:00 AM 75.2 °F - 66.2 °F 73% 30.01 in 6.2 mi ENE 4.6 mph - N/A   Scattered Clouds
1:00 AM 71.6 °F - 66.2 °F 83% 29.98 in 6.2 mi Calm Calm - N/A   Scattered Clouds
2:00 AM 72 °F - 66 °F 76% 29.99 in 17 mi Calm Calm - -   Haze
2:00 AM 71.6 °F - 66.2 °F 83% 29.98 in 6.2 mi Calm Calm - N/A   Scattered Clouds
3:00 AM 71.6 °F - 66.2 °F 83% 29.98 in 6.2 mi Calm Calm - N/A   Partly Cloudy
4:00 AM 73.4 °F - 66.2 °F 78% 29.98 in 6.2 mi Variable 1.2 mph - N/A   Scattered Clouds
5:00 AM 72 °F - 66 °F 77% 29.99 in 17 mi Calm Calm - -   Haze
5:00 AM 71.6 °F - 66.2 °F 83% 29.98 in 6.2 mi Calm Calm - N/A   Partly Cloudy
6:00 AM 75.2 °F - 68.0 °F 78% 29.98 in 6.2 mi ENE 5.8 mph - N/A   Scattered Clouds
7:00 AM 75.2 °F - 66.2 °F 73% 30.01 in 6.2 mi ENE 5.8 mph - N/A   Scattered Clouds
8:00 AM 77 °F - 68 °F 67% 30.04 in 17 mi ENE 8.1 mph - -   Haze
8:00 AM 77.0 °F - 68.0 °F 74% 30.04 in 6.2 mi ENE 8.1 mph - N/A   Mostly Cloudy
9:00 AM 80.6 °F 83.2 °F 68.0 °F 65% 30.04 in 6.2 mi East 10.4 mph - N/A   Partly Cloudy
10:00 AM 80.6 °F 83.2 °F 68.0 °F 65% 30.06 in 6.2 mi ENE 10.4 mph - N/A   Scattered Clouds
11:00 AM 81 °F - 66 °F 51% 30.06 in 17 mi East 10.4 mph - -   Haze
11:00 AM 80.6 °F 82.7 °F 66.2 °F 61% 30.04 in 6.2 mi East 10.4 mph - N/A   Scattered Clouds
12:00 PM 78.8 °F - 68.0 °F 69% 30.04 in 6.2 mi East 8.1 mph - N/A   Scattered Clouds
1:00 PM 77.0 °F - 68.0 °F 74% 30.01 in 6.2 mi ESE 6.9 mph - N/A   Mostly Cloudy
2:00 PM 78 °F - 67 °F 61% 30.01 in 17 mi East 4.6 mph - -   Haze
2:00 PM 78.8 °F - 68.0 °F 69% 30.01 in 6.2 mi East 4.6 mph - N/A   Mostly Cloudy
3:00 PM 80.6 °F 82.7 °F 66.2 °F 61% 29.98 in 6.2 mi East 9.2 mph - N/A   Scattered Clouds
4:00 PM 82.4 °F 85.4 °F 68.0 °F 62% 29.98 in 6.2 mi ESE 8.1 mph - N/A   Mostly Cloudy
5:00 PM 82 °F - 68 °F 54% 29.99 in 17 mi East 5.8 mph - -   Haze
5:00 PM 82.4 °F 85.4 °F 68.0 °F 62% 29.98 in 6.2 mi East 5.8 mph - N/A   Mostly Cloudy
6:00 PM 78.8 °F - 66.2 °F 65% 30.01 in 6.2 mi ESE 4.6 mph - N/A   Mostly Cloudy
7:00 PM 77.0 °F - 66.2 °F 69% 30.01 in 6.2 mi SE 3.5 mph - N/A   Scattered Clouds
8:00 PM 77 °F - 67 °F 65% 30.04 in 17 mi 2.3 mph - -   Haze
8:00 PM 77.0 °F - 68.0 °F 74% 30.04 in 6.2 mi Variable 2.3 mph - N/A   Partly Cloudy
9:00 PM 75.2 °F - 68.0 °F 78% 30.04 in 6.2 mi SE 3.5 mph - N/A   Partly Cloudy
10:00 PM 75.2 °F - 68.0 °F 78% 30.06 in 6.2 mi Variable 2.3 mph - N/A   Scattered Clouds
11:00 PM 77 °F - 68 °F 66% 30.07 in 17 mi East 4.6 mph - -   Haze
11:00 PM 77.0 °F - 68.0 °F 74% 30.06 in 6.2 mi East 4.6 mph - N/A   Partly Cloudy